GIA009 WIOO-WIII

Flight info

Callsign GIA009
Flight time 1h 12m
Altitude 35000
Route MASRI W38 AMBOY
Aircraft B738/M-SDE2E3FGHIRWXY/LB1

Departure

Time 2026-05-08 10:26
Airport Supadio International Airport (WIOO)

Arrival

Time 2026-05-08 11:38
Airport Soekarno-Hatta International Airport (WIII)
Time Latitude Longitude Altitude Speed Heading
2026-05-08 09:58 -0.14706 109.40389 29 ft 0 kts 68°
2026-05-08 10:18 -0.14714 109.40371 8 ft 4 kts 62°
2026-05-08 10:18 -0.14729 109.40348 31 ft 4 kts 49°
2026-05-08 10:18 -0.14748 109.40331 31 ft 3 kts 31°
2026-05-08 10:18 -0.14750 109.40329 31 ft 1 kts 30°
2026-05-08 10:21 -0.14749 109.40330 31 ft 2 kts 29°
2026-05-08 10:21 -0.14709 109.40329 31 ft 10 kts 345°
2026-05-08 10:21 -0.14628 109.40298 31 ft 13 kts 338°
2026-05-08 10:21 -0.14542 109.40264 31 ft 13 kts 338°
2026-05-08 10:22 -0.14466 109.40233 31 ft 9 kts 338°
2026-05-08 10:22 -0.14447 109.40226 30 ft 2 kts 338°
2026-05-08 10:22 -0.14426 109.40208 30 ft 7 kts 301°
2026-05-08 10:22 -0.14432 109.40163 30 ft 8 kts 263°
2026-05-08 10:23 -0.14393 109.40108 30 ft 14 kts 333°
2026-05-08 10:23 -0.14293 109.40065 32 ft 17 kts 338°
2026-05-08 10:23 -0.14224 109.40031 32 ft 9 kts 315°
2026-05-08 10:23 -0.14178 109.39988 32 ft 8 kts 338°
2026-05-08 10:24 -0.14151 109.39992 32 ft 1 kts 53°
2026-05-08 10:24 -0.14152 109.39999 32 ft 2 kts 102°
2026-05-08 10:24 -0.14162 109.40009 32 ft 3 kts 139°
2026-05-08 10:24 -0.14174 109.40016 32 ft 0 kts 152°
2026-05-08 10:25 -0.14255 109.40050 32 ft 48 kts 157°
2026-05-08 10:25 -0.15168 109.40419 37 ft 158 kts 160°
2026-05-08 10:26 -0.15906 109.40735 276 ft 184 kts 158°
2026-05-08 10:26 -0.17633 109.41473 1027 ft 226 kts 160°
2026-05-08 10:26 -0.18714 109.41775 1177 ft 251 kts 177°
2026-05-08 10:26 -0.21166 109.41568 1823 ft 281 kts 188°
2026-05-08 10:27 -0.22472 109.41408 2387 ft 287 kts 187°
2026-05-08 10:27 -0.24468 109.41172 3319 ft 290 kts 187°
2026-05-08 10:27 -0.26489 109.40948 4231 ft 294 kts 186°
2026-05-08 10:27 -0.28534 109.40735 5105 ft 298 kts 186°
2026-05-08 10:28 -0.30597 109.40531 5985 ft 301 kts 186°
2026-05-08 10:28 -0.32701 109.40330 6821 ft 304 kts 186°
2026-05-08 10:28 -0.34797 109.40135 7598 ft 309 kts 186°
2026-05-08 10:28 -0.36983 109.39935 8421 ft 312 kts 185°
2026-05-08 10:29 -0.39115 109.39743 9197 ft 316 kts 185°
2026-05-08 10:29 -0.41372 109.39540 9963 ft 321 kts 185°
2026-05-08 10:29 -0.43606 109.39341 10685 ft 324 kts 185°
2026-05-08 10:29 -0.45871 109.39139 11410 ft 328 kts 185°
2026-05-08 10:30 -0.48123 109.38939 12102 ft 332 kts 185°
2026-05-08 10:30 -0.50441 109.38733 12823 ft 335 kts 185°
2026-05-08 10:30 -0.52778 109.38525 13534 ft 339 kts 184°
2026-05-08 10:30 -0.55142 109.38316 14146 ft 343 kts 184°
2026-05-08 10:31 -0.57538 109.38103 14770 ft 347 kts 184°
2026-05-08 10:31 -0.59951 109.37889 15396 ft 350 kts 184°
2026-05-08 10:31 -0.62392 109.37672 16022 ft 353 kts 184°
2026-05-08 10:31 -0.64844 109.37455 16626 ft 357 kts 184°
2026-05-08 10:32 -0.67331 109.37234 17227 ft 360 kts 184°
2026-05-08 10:32 -0.69841 109.37011 17835 ft 364 kts 184°
2026-05-08 10:32 -0.72376 109.36786 18379 ft 367 kts 184°
2026-05-08 10:32 -0.74935 109.36559 18891 ft 370 kts 184°
2026-05-08 10:33 -0.77515 109.36329 19415 ft 373 kts 184°
2026-05-08 10:33 -0.80114 109.36099 19923 ft 376 kts 184°
2026-05-08 10:33 -0.82738 109.35865 20422 ft 379 kts 184°
2026-05-08 10:33 -0.85373 109.35631 21002 ft 378 kts 184°
2026-05-08 10:34 -0.87941 109.35402 22017 ft 365 kts 183°
2026-05-08 10:34 -0.90463 109.35177 22769 ft 362 kts 183°
2026-05-08 10:34 -0.92984 109.34940 23233 ft 367 kts 184°
2026-05-08 10:34 -0.95546 109.34667 23640 ft 371 kts 184°
2026-05-08 10:35 -0.98122 109.34381 24054 ft 374 kts 184°
2026-05-08 10:35 -1.00713 109.34093 24488 ft 376 kts 184°
2026-05-08 10:35 -1.03328 109.33803 24915 ft 378 kts 184°
2026-05-08 10:35 -1.05915 109.33518 25330 ft 381 kts 184°
2026-05-08 10:36 -1.08561 109.33228 25738 ft 383 kts 184°
2026-05-08 10:36 -1.11227 109.32938 26122 ft 387 kts 184°
2026-05-08 10:36 -1.13968 109.32641 26061 ft 403 kts 184°
2026-05-08 10:36 -1.16793 109.32335 26043 ft 417 kts 184°
2026-05-08 10:37 -1.19731 109.32015 26020 ft 429 kts 184°
2026-05-08 10:37 -1.22737 109.31688 26023 ft 439 kts 184°
2026-05-08 10:37 -1.25791 109.31354 26016 ft 442 kts 184°
2026-05-08 10:37 -1.28849 109.31020 26003 ft 440 kts 184°
2026-05-08 10:38 -1.31882 109.30689 25996 ft 438 kts 184°
2026-05-08 10:38 -1.34863 109.30127 25988 ft 440 kts 198°
2026-05-08 10:38 -1.37633 109.28798 26026 ft 439 kts 207°
2026-05-08 10:38 -1.40271 109.27324 26017 ft 439 kts 208°
2026-05-08 10:39 -1.42922 109.25804 26012 ft 439 kts 208°
2026-05-08 10:39 -1.45575 109.24281 26007 ft 439 kts 208°
2026-05-08 10:39 -1.48228 109.22769 26007 ft 440 kts 208°
2026-05-08 10:39 -1.50894 109.21264 26012 ft 440 kts 208°
2026-05-08 10:40 -1.53566 109.19767 26010 ft 440 kts 207°
2026-05-08 10:40 -1.56243 109.18274 26010 ft 441 kts 207°
2026-05-08 10:40 -1.58922 109.16785 26015 ft 441 kts 207°
2026-05-08 10:40 -1.61611 109.15291 26013 ft 442 kts 207°
2026-05-08 10:41 -1.64279 109.13809 26013 ft 442 kts 207°
2026-05-08 10:41 -1.66986 109.12305 26014 ft 442 kts 207°
2026-05-08 10:41 -1.69676 109.10811 26011 ft 442 kts 207°
2026-05-08 10:41 -1.72368 109.09315 26025 ft 444 kts 207°
2026-05-08 10:42 -1.75097 109.07798 26272 ft 447 kts 207°
2026-05-08 10:42 -1.77813 109.06288 26679 ft 446 kts 207°
2026-05-08 10:42 -1.80511 109.04788 27014 ft 437 kts 207°
2026-05-08 10:42 -1.83110 109.03341 27346 ft 418 kts 207°
2026-05-08 10:43 -1.85565 109.01973 27700 ft 399 kts 207°
2026-05-08 10:43 -1.87960 109.00640 28084 ft 392 kts 207°
2026-05-08 10:43 -1.90337 108.99319 28543 ft 390 kts 207°
2026-05-08 10:43 -1.92709 108.98002 29054 ft 388 kts 207°
2026-05-08 10:44 -1.95065 108.96693 29568 ft 387 kts 207°
2026-05-08 10:44 -1.97413 108.95389 30059 ft 385 kts 207°
2026-05-08 10:44 -1.99753 108.94087 30505 ft 383 kts 207°
2026-05-08 10:44 -2.02087 108.92790 30808 ft 387 kts 207°
2026-05-08 10:45 -2.04469 108.91467 30841 ft 397 kts 207°
2026-05-08 10:45 -2.09430 108.88711 30977 ft 417 kts 207°
2026-05-08 10:46 -2.14601 108.85835 31201 ft 429 kts 207°
2026-05-08 10:46 -2.17166 108.84406 31648 ft 427 kts 208°
2026-05-08 10:46 -2.19766 108.82959 31987 ft 427 kts 208°
2026-05-08 10:46 -2.22359 108.81516 32339 ft 426 kts 208°
2026-05-08 10:47 -2.24950 108.80074 32700 ft 426 kts 208°
2026-05-08 10:47 -2.27536 108.78635 33062 ft 425 kts 208°
2026-05-08 10:47 -2.30115 108.77200 33430 ft 424 kts 208°
2026-05-08 10:47 -2.32682 108.75772 33801 ft 423 kts 208°
2026-05-08 10:48 -2.35256 108.74340 34112 ft 422 kts 208°
2026-05-08 10:48 -2.40491 108.71427 34211 ft 436 kts 208°
2026-05-08 10:49 -2.45866 108.68435 34320 ft 449 kts 208°
2026-05-08 10:49 -2.51576 108.65724 34416 ft 459 kts 198°
2026-05-08 10:50 -2.57758 108.63879 34563 ft 468 kts 195°
2026-05-08 10:50 -2.60898 108.63000 34688 ft 470 kts 195°
2026-05-08 10:50 -2.64036 108.62108 34840 ft 467 kts 195°
2026-05-08 10:51 -2.70293 108.60267 34846 ft 470 kts 196°
2026-05-08 10:51 -2.76520 108.58382 34850 ft 471 kts 196°
2026-05-08 10:52 -2.82803 108.56466 34854 ft 471 kts 196°
2026-05-08 10:52 -2.89085 108.54551 34855 ft 472 kts 196°
2026-05-08 10:53 -2.95366 108.52638 34851 ft 472 kts 196°
2026-05-08 10:53 -3.01648 108.50726 34845 ft 471 kts 196°
2026-05-08 10:54 -3.07926 108.48815 34851 ft 471 kts 196°
2026-05-08 10:54 -3.14187 108.46910 34852 ft 470 kts 196°
2026-05-08 10:55 -3.20444 108.45005 34853 ft 469 kts 196°
2026-05-08 10:55 -3.26686 108.43104 34847 ft 469 kts 196°
2026-05-08 10:56 -3.32880 108.41217 34848 ft 468 kts 196°
2026-05-08 10:56 -3.39126 108.39315 34853 ft 468 kts 196°
2026-05-08 10:57 -3.45358 108.37416 34857 ft 468 kts 196°
2026-05-08 10:57 -3.54698 108.34571 34850 ft 468 kts 196°
2026-05-08 10:58 -3.60922 108.32674 34855 ft 468 kts 196°
2026-05-08 10:58 -3.67161 108.30773 34854 ft 468 kts 196°
2026-05-08 10:59 -3.73387 108.28875 34848 ft 468 kts 196°
2026-05-08 10:59 -3.79624 108.26974 34853 ft 468 kts 196°
2026-05-08 11:00 -3.85856 108.25073 34847 ft 468 kts 196°
2026-05-08 11:00 -3.92087 108.23173 34851 ft 468 kts 196°
2026-05-08 11:01 -3.98294 108.21280 34843 ft 469 kts 196°
2026-05-08 11:01 -4.04537 108.19375 34854 ft 469 kts 196°
2026-05-08 11:02 -4.13897 108.16472 34836 ft 470 kts 201°
2026-05-08 11:03 -4.19744 108.13592 34638 ft 469 kts 208°
2026-05-08 11:03 -4.22607 108.12009 34521 ft 469 kts 208°
2026-05-08 11:03 -4.25455 108.10427 34404 ft 467 kts 208°
2026-05-08 11:03 -4.28309 108.08863 34298 ft 466 kts 208°
2026-05-08 11:04 -4.31162 108.07325 34193 ft 465 kts 208°
2026-05-08 11:04 -4.34015 108.05806 34085 ft 465 kts 207°
2026-05-08 11:04 -4.36884 108.04291 33977 ft 464 kts 207°
2026-05-08 11:04 -4.39703 108.02808 33871 ft 464 kts 207°
2026-05-08 11:05 -4.42561 108.01307 33750 ft 463 kts 207°
2026-05-08 11:05 -4.45415 107.99807 33637 ft 462 kts 207°
2026-05-08 11:05 -4.48249 107.98318 33522 ft 461 kts 207°
2026-05-08 11:05 -4.51083 107.96827 33415 ft 461 kts 207°
2026-05-08 11:06 -4.53928 107.95330 33308 ft 460 kts 207°
2026-05-08 11:06 -4.56772 107.93833 33192 ft 459 kts 207°
2026-05-08 11:06 -4.59592 107.92349 33093 ft 458 kts 207°
2026-05-08 11:06 -4.62423 107.90857 32991 ft 458 kts 207°
2026-05-08 11:07 -4.65214 107.89388 32883 ft 457 kts 207°
2026-05-08 11:07 -4.68028 107.87906 32776 ft 456 kts 207°
2026-05-08 11:07 -4.70832 107.86428 32669 ft 456 kts 207°
2026-05-08 11:07 -4.73642 107.84949 32566 ft 455 kts 207°
2026-05-08 11:08 -4.76443 107.83473 32460 ft 454 kts 207°
2026-05-08 11:08 -4.82027 107.80531 32252 ft 453 kts 207°
2026-05-08 11:08 -4.84813 107.79062 32147 ft 452 kts 207°
2026-05-08 11:09 -4.87594 107.77597 32045 ft 451 kts 207°
2026-05-08 11:09 -4.90379 107.76129 31940 ft 451 kts 207°
2026-05-08 11:09 -4.93156 107.74665 31829 ft 450 kts 207°
2026-05-08 11:10 -4.98688 107.71749 31630 ft 449 kts 207°
2026-05-08 11:10 -5.01455 107.70289 31523 ft 448 kts 207°
2026-05-08 11:10 -5.03280 107.69327 31457 ft 447 kts 207°
2026-05-08 11:11 -5.08784 107.66424 31248 ft 446 kts 207°
2026-05-08 11:11 -5.15163 107.63058 31014 ft 444 kts 207°
2026-05-08 11:11 -5.17835 107.61503 30886 ft 445 kts 217°
2026-05-08 11:12 -5.19345 107.60109 30809 ft 445 kts 228°
2026-05-08 11:12 -5.21077 107.57491 30356 ft 447 kts 246°
2026-05-08 11:12 -5.22222 107.54641 29973 ft 447 kts 249°
2026-05-08 11:12 -5.23341 107.51687 29452 ft 447 kts 249°
2026-05-08 11:13 -5.24437 107.48777 29003 ft 445 kts 249°
2026-05-08 11:13 -5.25526 107.45918 28566 ft 441 kts 249°
2026-05-08 11:13 -5.26633 107.43055 28130 ft 438 kts 248°
2026-05-08 11:13 -5.27740 107.40222 27705 ft 434 kts 248°
2026-05-08 11:14 -5.28842 107.37418 27291 ft 431 kts 248°
2026-05-08 11:14 -5.29938 107.34636 26876 ft 427 kts 248°
2026-05-08 11:14 -5.31016 107.31898 26471 ft 422 kts 248°
2026-05-08 11:14 -5.32095 107.29154 26056 ft 419 kts 248°
2026-05-08 11:15 -5.33160 107.26445 25664 ft 416 kts 248°
2026-05-08 11:15 -5.34221 107.23747 25248 ft 414 kts 248°
2026-05-08 11:15 -5.35272 107.21072 24853 ft 410 kts 248°
2026-05-08 11:15 -5.36306 107.18432 24514 ft 404 kts 248°
2026-05-08 11:16 -5.37328 107.15816 24166 ft 403 kts 248°
2026-05-08 11:16 -5.38349 107.13200 23834 ft 401 kts 248°
2026-05-08 11:16 -5.39363 107.10600 23498 ft 399 kts 248°
2026-05-08 11:16 -5.40374 107.08008 23126 ft 396 kts 248°
2026-05-08 11:17 -5.41374 107.05446 22776 ft 393 kts 248°
2026-05-08 11:17 -5.42357 107.02927 22444 ft 392 kts 248°
2026-05-08 11:17 -5.43349 107.00383 22108 ft 391 kts 248°
2026-05-08 11:17 -5.44348 106.97823 21784 ft 389 kts 248°
2026-05-08 11:18 -5.45335 106.95292 21459 ft 387 kts 248°
2026-05-08 11:18 -5.46334 106.92794 21133 ft 385 kts 243°
2026-05-08 11:18 -5.47846 106.90653 20799 ft 381 kts 223°
2026-05-08 11:18 -5.49973 106.89094 20310 ft 380 kts 204°
2026-05-08 11:19 -5.52412 106.88069 19836 ft 379 kts 199°
2026-05-08 11:19 -5.54856 106.87149 19337 ft 371 kts 198°
2026-05-08 11:19 -5.57256 106.86265 18852 ft 363 kts 198°
2026-05-08 11:19 -5.59600 106.85396 18379 ft 357 kts 198°
2026-05-08 11:20 -5.61935 106.84519 17881 ft 358 kts 199°
2026-05-08 11:20 -5.64268 106.83633 17382 ft 359 kts 199°
2026-05-08 11:20 -5.66599 106.82741 16905 ft 358 kts 199°
2026-05-08 11:20 -5.68926 106.81846 16433 ft 358 kts 199°
2026-05-08 11:21 -5.71249 106.80950 15964 ft 357 kts 199°
2026-05-08 11:21 -5.73571 106.80054 15501 ft 356 kts 199°
2026-05-08 11:21 -5.75854 106.79172 15029 ft 347 kts 199°
2026-05-08 11:21 -5.78086 106.78311 14584 ft 341 kts 199°
2026-05-08 11:22 -5.80305 106.77456 14129 ft 343 kts 199°
2026-05-08 11:22 -5.82536 106.76596 13675 ft 344 kts 199°
2026-05-08 11:22 -5.84754 106.75702 13177 ft 345 kts 205°
2026-05-08 11:22 -5.86647 106.74220 12714 ft 348 kts 228°
2026-05-08 11:23 -5.87881 106.72187 12316 ft 339 kts 246°
2026-05-08 11:23 -5.88752 106.70023 11946 ft 329 kts 248°
2026-05-08 11:23 -5.89572 106.67878 11676 ft 327 kts 248°
2026-05-08 11:23 -5.90390 106.65749 11318 ft 329 kts 248°
2026-05-08 11:24 -5.91220 106.63633 10956 ft 329 kts 247°
2026-05-08 11:24 -5.92066 106.61505 10574 ft 324 kts 247°
2026-05-08 11:24 -5.92891 106.59438 10204 ft 315 kts 247°
2026-05-08 11:24 -5.93699 106.57426 9951 ft 303 kts 246°
2026-05-08 11:25 -5.94478 106.55510 9728 ft 295 kts 246°
2026-05-08 11:25 -5.95256 106.53607 9484 ft 292 kts 246°
2026-05-08 11:25 -5.96021 106.51735 9238 ft 288 kts 246°
2026-05-08 11:25 -5.96777 106.49885 9036 ft 285 kts 246°
2026-05-08 11:26 -5.97531 106.48037 8826 ft 284 kts 246°
2026-05-08 11:26 -5.98278 106.46204 8619 ft 283 kts 246°
2026-05-08 11:26 -5.99025 106.44373 8416 ft 282 kts 246°
2026-05-08 11:26 -5.99768 106.42549 8207 ft 282 kts 246°
2026-05-08 11:27 -6.00508 106.40730 8007 ft 280 kts 246°
2026-05-08 11:27 -6.01236 106.38943 7808 ft 279 kts 246°
2026-05-08 11:27 -6.01962 106.37161 7595 ft 270 kts 246°
2026-05-08 11:27 -6.02658 106.35449 7400 ft 260 kts 246°
2026-05-08 11:28 -6.03338 106.33792 7200 ft 251 kts 243°
2026-05-08 11:28 -6.04398 106.32448 7070 ft 247 kts 213°
2026-05-08 11:28 -6.05959 106.31811 7038 ft 241 kts 185°
2026-05-08 11:28 -6.07600 106.31847 7015 ft 230 kts 170°
2026-05-08 11:29 -6.09126 106.32111 7015 ft 215 kts 167°
2026-05-08 11:29 -6.10573 106.32390 7005 ft 209 kts 167°
2026-05-08 11:29 -6.11984 106.32658 6978 ft 207 kts 167°
2026-05-08 11:29 -6.13407 106.32921 6732 ft 212 kts 168°
2026-05-08 11:30 -6.14866 106.33185 6421 ft 212 kts 168°
2026-05-08 11:30 -6.16311 106.33443 6073 ft 211 kts 168°
2026-05-08 11:30 -6.17738 106.33696 5821 ft 204 kts 168°
2026-05-08 11:30 -6.19133 106.33943 5613 ft 204 kts 168°
2026-05-08 11:31 -6.20460 106.34402 5399 ft 203 kts 140°
2026-05-08 11:31 -6.21347 106.35469 5225 ft 201 kts 123°
2026-05-08 11:31 -6.22102 106.36673 4984 ft 205 kts 121°
2026-05-08 11:31 -6.22857 106.37902 4760 ft 206 kts 121°
2026-05-08 11:32 -6.23587 106.39146 4344 ft 210 kts 112°
2026-05-08 11:32 -6.23713 106.40582 3857 ft 210 kts 74°
2026-05-08 11:32 -6.23161 106.41907 3442 ft 208 kts 67°
2026-05-08 11:32 -6.22617 106.43245 3082 ft 203 kts 69°
2026-05-08 11:33 -6.22122 106.44501 3000 ft 184 kts 69°
2026-05-08 11:33 -6.21678 106.45625 2983 ft 163 kts 69°
2026-05-08 11:33 -6.21267 106.46664 3040 ft 160 kts 69°
2026-05-08 11:33 -6.20854 106.47709 2994 ft 165 kts 69°
2026-05-08 11:34 -6.20431 106.48775 2989 ft 162 kts 69°
2026-05-08 11:34 -6.20013 106.49830 2925 ft 163 kts 69°
2026-05-08 11:34 -6.19590 106.50897 2729 ft 164 kts 69°
2026-05-08 11:34 -6.19170 106.51960 2528 ft 163 kts 68°
2026-05-08 11:35 -6.18756 106.53003 2323 ft 159 kts 69°
2026-05-08 11:35 -6.18356 106.54014 2120 ft 156 kts 69°
2026-05-08 11:35 -6.17958 106.55018 1908 ft 153 kts 68°
2026-05-08 11:35 -6.17571 106.55994 1727 ft 151 kts 67°
2026-05-08 11:36 -6.17178 106.56986 1530 ft 153 kts 66°
2026-05-08 11:36 -6.16786 106.57976 1335 ft 154 kts 67°
2026-05-08 11:36 -6.16388 106.58979 1121 ft 155 kts 66°
2026-05-08 11:36 -6.16002 106.59953 944 ft 151 kts 68°
2026-05-08 11:37 -6.15610 106.60947 767 ft 151 kts 66°
2026-05-08 11:37 -6.15217 106.61937 566 ft 153 kts 66°
2026-05-08 11:37 -6.14825 106.62920 392 ft 148 kts 64°
2026-05-08 11:37 -6.14452 106.63875 213 ft 143 kts 66°
2026-05-08 11:38 -6.14095 106.64771 47 ft 132 kts 66°
2026-05-08 11:38 -6.13782 106.65547 37 ft 103 kts 69°
2026-05-08 11:38 -6.13560 106.66105 39 ft 69 kts 68°
2026-05-08 11:38 -6.13419 106.66456 40 ft 43 kts 68°
2026-05-08 11:39 -6.13364 106.66565 42 ft 11 kts 53°
2026-05-08 11:39 -6.13312 106.66622 41 ft 12 kts 44°
2026-05-08 11:39 -6.13238 106.66684 40 ft 16 kts 39°
2026-05-08 11:39 -6.13210 106.66703 40 ft 4 kts 19°
2026-05-08 11:40 -6.13169 106.66703 39 ft 7 kts 356°
2026-05-08 11:40 -6.13120 106.66730 38 ft 10 kts 54°
2026-05-08 11:40 -6.13086 106.66803 38 ft 13 kts 69°
2026-05-08 11:40 -6.13049 106.66897 38 ft 16 kts 68°
2026-05-08 11:41 -6.13000 106.67019 38 ft 21 kts 69°
2026-05-08 11:41 -6.12947 106.67153 38 ft 20 kts 68°
2026-05-08 11:41 -6.12895 106.67285 38 ft 20 kts 68°
2026-05-08 11:41 -6.12848 106.67412 36 ft 19 kts 68°
2026-05-08 11:42 -6.12783 106.67530 36 ft 21 kts 58°
2026-05-08 11:42 -6.12701 106.67667 35 ft 24 kts 59°
2026-05-08 11:42 -6.12587 106.67808 37 ft 29 kts 35°
2026-05-08 11:42 -6.12419 106.67864 37 ft 25 kts
2026-05-08 11:43 -6.12265 106.67832 40 ft 16 kts 337°
2026-05-08 11:43 -6.12162 106.67790 45 ft 16 kts 339°
2026-05-08 11:43 -6.12062 106.67751 49 ft 15 kts 338°
2026-05-08 11:43 -6.11967 106.67714 54 ft 14 kts 338°
2026-05-08 11:44 -6.11876 106.67677 59 ft 14 kts 337°
2026-05-08 11:44 -6.11789 106.67641 60 ft 13 kts 338°
2026-05-08 11:44 -6.11705 106.67608 57 ft 13 kts 340°
2026-05-08 11:44 -6.11561 106.67558 37 ft 27 kts 339°
2026-05-08 11:45 -6.11396 106.67486 37 ft 25 kts 338°
2026-05-08 11:45 -6.11240 106.67424 37 ft 23 kts 338°
2026-05-08 11:45 -6.11122 106.67372 37 ft 15 kts 329°
2026-05-08 11:45 -6.11087 106.67281 37 ft 15 kts 262°
2026-05-08 11:46 -6.11109 106.67179 35 ft 15 kts 257°
2026-05-08 11:46 -6.11131 106.67081 37 ft 14 kts 258°
2026-05-08 11:46 -6.11149 106.67004 37 ft 11 kts 253°
2026-05-08 11:46 -6.11179 106.66925 37 ft 12 kts 248°
2026-05-08 11:47 -6.11250 106.66888 37 ft 14 kts 171°
2026-05-08 11:47 -6.11337 106.66919 37 ft 13 kts 157°
2026-05-08 11:47 -6.11419 106.66945 37 ft 12 kts 182°
2026-05-08 11:47 -6.11467 106.66905 37 ft 7 kts 247°
2026-05-08 11:48 -6.11483 106.66868 37 ft 5 kts 250°
2026-05-08 11:48 -6.11496 106.66833 37 ft 5 kts 248°
2026-05-08 11:48 -6.11510 106.66800 37 ft 5 kts 243°
2026-05-08 11:48 -6.11531 106.66795 37 ft 4 kts 159°
2026-05-08 11:49 -6.11555 106.66806 37 ft 4 kts 156°
2026-05-08 11:49 -6.11576 106.66815 37 ft 3 kts 158°
2026-05-08 11:49 -6.11588 106.66820 37 ft 1 kts 158°
2026-05-08 11:49 -6.11597 106.66823 37 ft 1 kts 158°
2026-05-08 11:50 -6.11603 106.66826 35 ft 0 kts 158°
2026-05-08 11:50 -6.11604 106.66826 35 ft 0 kts 158°
2026-05-08 11:53 -6.11606 106.66827 37 ft 2 kts 158°
2026-05-08 11:53 -6.11618 106.66832 37 ft 0 kts 158°
2026-05-08 11:54 -6.11604 106.66826 37 ft 0 kts 158°
2026-05-08 11:55 -6.11622 106.66821 36 ft 0 kts 134°